This demonstration page uses our WeatherBlox Daily Observations layout. Learn more.

Left ArrowRight Arrow

Hourly Observations for September 1, 2015

Temp ( °F °C ) Dew Point ( °F °C ) Humidity (%) Winds ( mph kmh ) Pressure ( in mb ) Visibility ( mi km ) Precip ( " mm )
12:53 am 00:53 Clear 71 21.7 63 17.2 76 76 SSE 7 11 29.86 1011 9 14 0.00 0.00
1:53 am 01:53 Clear 71 21.7 62 16.7 73 73 SSE 7 11 29.87 1012 9 14 0.00 0.00
2:53 am 02:53 Clear 70 21.1 62 16.7 76 76 S 8 13 29.86 1011 10 16 0.00 0.00
3:53 am 03:53 Clear 69 20.6 61 16.1 76 76 S 8 13 29.85 1011 10 16 0.00 0.00
4:53 am 04:53 Clear 68 20 59 15 73 73 S 7 11 29.86 1011 10 16 0.00 0.00
5:53 am 05:53 Clear 67 19.4 58 14.4 73 73 S 7 11 29.86 1011 10 16 0.00 0.00
6:53 am 06:53 Clear 67 19.4 58 14.4 73 73 S 7 11 29.87 1012 10 16 0.00 0.00
7:53 am 07:53 Mostly Sunny 69 20.6 59 15 70 70 S 8 13 29.87 1012 10 16 0.00 0.00
8:53 am 08:53 undefined 71 21.7 62 16.7 73 73 SSW 8 13 29.90 1012 8 13 0.00 0.00
9:53 am 09:53 Sunny 76 24.4 63 17.2 64 64 SSW 9 15 29.90 1013 10 16 0.00 0.00
10:53 am 10:53 Sunny 80 26.7 64 17.8 58 58 SSW 12 19 29.90 1013 10 16 0.00 0.00
11:53 am 11:53 Sunny 83 28.3 64 17.8 53 53 SSW 15 24 29.89 1012 10 16 0.00 0.00
12:53 pm 12:53 Sunny 85 29.4 64 17.8 50 50 SW 8 13 29.88 1012 10 16 0.00 0.00
1:53 pm 13:53 Sunny 87 30.6 65 18.3 48 48 WSW 7 11 29.86 1011 10 16 0.00 0.00
2:53 pm 14:53 Sunny 87 30.6 64 17.8 46 46 SW 8 13 29.85 1011 9 14 0.00 0.00
3:53 pm 15:53 Sunny 91 32.8 65 18.3 42 42 SW 8 13 29.83 1010 10 16 0.00 0.00
4:53 pm 16:53 Sunny 90 32.2 63 17.2 41 41 SSW 10 17 29.82 1010 10 16 0.00 0.00
5:53 pm 17:53 Sunny 91 32.8 65 18.3 42 42 SW 7 11 29.81 1010 10 16 0.00 0.00
6:53 pm 18:53 Sunny 88 31 66 19 49 49 SSE 12 19 29.74 1007 10 16 0.00 0.00
7:53 pm 19:53 Sunny 86 30 67 19.4 53 53 Calm 29.82 1010 10 16 0.00 0.00
8:53 pm 20:53 Clear 82 27.8 65 18.3 56 56 SE 9 15 29.83 1010 10 16 0.00 0.00
9:53 pm 21:53 Mostly Clear 81 27.2 64 17.8 57 57 SSE 9 15 29.84 1011 10 16 0.00 0.00
10:53 pm 22:53 Partly Cloudy 78 25.6 64 17.8 62 62 SSE 10 17 29.85 1011 10 16 0.00 0.00
11:53 pm 23:53 Clear 76 24.4 63 17.2 64 64 undefined N/A 29.85 1011 10 16 0.00 0.00

Powered by AerisWeather